TimeCST,TemperatureF,Dew PointF,Humidity,Sea Level PressureIn,VisibilityMPH,Wind Direction,Wind SpeedMPH,Gust SpeedMPH,PrecipitationIn,Events,Conditions,WindDirDegrees,DateUTC
12:27 AM,57.9,57.0,97,29.95,10.0,NW,15.0,23.0,0.00,Rain,Light Rain,310,2013-12-15 06:27:00
12:36 AM,55.9,55.0,97,29.96,9.0,NW,18.4,28.8,0.00,Rain,Light Rain,320,2013-12-15 06:36:00
12:56 AM,54.0,54.0,100,29.92,7.0,NNW,10.4,24.2,0.00,Rain,Light Rain,330,2013-12-15 06:56:00
1:56 AM,51.1,51.1,100,29.96,6.0,NW,16.1,20.7,0.00,,Overcast,320,2013-12-15 07:56:00
2:56 AM,50.0,48.9,96,29.97,9.0,NNW,12.7,20.7,N/A,,Overcast,340,2013-12-15 08:56:00
3:11 AM,50.0,46.9,89,30.02,10.0,NW,10.4,19.6,N/A,,Overcast,320,2013-12-15 09:11:00
3:56 AM,46.9,45.0,93,30.00,10.0,NW,12.7,20.7,N/A,,Overcast,320,2013-12-15 09:56:00
4:56 AM,46.0,43.0,89,30.01,10.0,NNW,11.5,20.7,N/A,,Overcast,330,2013-12-15 10:56:00
5:32 AM,45.0,39.9,82,30.08,10.0,NNW,15.0,24.2,N/A,,Overcast,330,2013-12-15 11:32:00
5:56 AM,44.1,39.9,85,30.06,10.0,NNW,12.7,23.0,N/A,,Overcast,330,2013-12-15 11:56:00
6:56 AM,42.1,37.9,85,30.09,10.0,North,12.7,20.7,N/A,,Overcast,350,2013-12-15 12:56:00
8:33 AM,43.0,37.0,80,30.17,10.0,North,10.4,21.9,N/A,,Overcast,350,2013-12-15 14:33:00
8:56 AM,43.0,37.0,80,30.14,10.0,North,6.9,20.7,N/A,,Overcast,350,2013-12-15 14:56:00
9:56 AM,44.1,37.0,76,30.16,10.0,NNW,13.8,23.0,N/A,,Overcast,340,2013-12-15 15:56:00
10:56 AM,44.1,37.0,76,30.15,10.0,NNW,10.4,18.4,N/A,,Overcast,340,2013-12-15 16:56:00
11:56 AM,43.0,37.0,80,30.15,10.0,NNW,10.4,18.4,N/A,,Overcast,330,2013-12-15 17:56:00
12:56 PM,45.0,37.0,74,30.13,10.0,North,8.1,-,N/A,,Overcast,350,2013-12-15 18:56:00
1:29 PM,46.0,36.0,68,30.16,10.0,North,11.5,20.7,N/A,,Scattered Clouds,350,2013-12-15 19:29:00
1:56 PM,46.9,36.0,66,30.12,10.0,North,8.1,-,N/A,,Clear,360,2013-12-15 19:56:00
2:56 PM,48.9,35.1,59,30.12,10.0,North,13.8,20.7,N/A,,Mostly Cloudy,350,2013-12-15 20:56:00
3:56 PM,46.0,34.0,63,30.14,10.0,NNW,17.3,20.7,N/A,,Mostly Cloudy,340,2013-12-15 21:56:00
4:56 PM,43.0,34.0,71,30.16,10.0,North,9.2,-,N/A,,Scattered Clouds,360,2013-12-15 22:56:00
5:56 PM,41.0,33.1,73,30.19,10.0,North,6.9,-,N/A,,Clear,360,2013-12-15 23:56:00
6:56 PM,39.9,33.1,77,30.22,10.0,North,10.4,-,N/A,,Partly Cloudy,350,2013-12-16 00:56:00
7:56 PM,39.0,32.0,76,30.23,10.0,North,10.4,-,N/A,,Partly Cloudy,350,2013-12-16 01:56:00
8:56 PM,37.0,34.0,89,30.24,10.0,North,3.5,-,N/A,,Unknown,350,2013-12-16 02:56:00
9:56 PM,36.0,33.1,89,30.24,10.0,North,3.5,-,N/A,,Unknown,360,2013-12-16 03:56:00
10:56 PM,36.0,33.1,89,30.24,10.0,North,4.6,-,N/A,,Unknown,350,2013-12-16 04:56:00
11:56 PM,34.0,33.1,96,30.25,8.0,NNW,4.6,-,N/A,,Unknown,340,2013-12-16 05:56:00